EW8080 Weather Reports


time (UTC)temp
C
wind
direction
speed
KPH
gust
KPH
rain 1hr
cm
rain 24hr
cm
rain mn
cm
humidity
%
barometer
mb
20260507151003 15 277 11.3 24.1 0.00 1.50 1.32 70 1008.3
20260507150003 15 58 8.0 25.7 0.00 1.50 1.32 73 1008.0
20260507145003 15 310 9.7 25.7 0.00 1.50 1.32 76 1008.0
20260507144003 14 341 12.9 24.1 0.00 1.50 1.32 73 1008.3
20260507143003 13 25 11.3 24.1 0.00 1.50 1.32 77 1008.0
20260507142003 13 270 11.3 20.9 0.00 1.50 1.32 85 1008.0
20260507141003 13 308 6.4 20.9 0.00 1.50 1.32 85 1008.4
20260507140003 12 271 11.3 19.3 0.03 1.50 1.32 86 1008.4
20260507135003 12 309 6.4 16.1 0.03 1.50 1.32 87 1008.5
20260507134003 11 310 8.0 17.7 0.03 1.50 1.32 88 1008.3
20260507133004 11 326 14.5 19.3 0.03 1.50 1.32 87 1008.5
20260507132003 11 354 8.0 19.3 0.05 1.50 1.30 87 1008.4
20260507131003 11 332 8.0 14.5 0.08 1.50 1.30 91 1008.3
20260507130003 10 345 9.7 14.5 0.08 1.50 1.30 90 1008.5
20260507125003 10 359 8.0 19.3 0.10 1.50 1.30 91 1008.2
20260507124003 10 10 9.7 19.3 0.10 1.47 1.27 93 1008.4
20260507123003 10 320 9.7 19.3 0.10 1.47 1.27 94 1008.7
20260507122024 9 303 8.0 12.9 0.13 1.45 1.27 94 1008.6
20260507121003 9 326 9.7 19.3 0.13 1.42 1.22 94 1008.5
20260507120004 9 5 4.8 19.3 0.13 1.40 1.22 94 1008.4
20260507115003 9 4 9.7 19.3 0.13 1.40 1.19 93 1008.5
20260507114024 9 17 6.4 20.9 0.13 1.40 1.19 93 1008.3
20260507113005 9 66 6.4 29.0 0.13 1.37 1.17 92 1008.5
20260507112003 9 331 14.5 37.0 0.10 1.32 1.12 92 1008.8
20260507111003 10 336 16.1 37.0 0.08 1.30 1.09 92 1008.5
20260507110003 10 6 20.9 30.6 0.10 1.27 1.07 93 1007.3
20260507105003 10 360 17.7 22.5 0.10 1.27 1.07 96 1007.4
20260507104003 10 286 8.0 20.9 0.10 1.27 1.07 96 1007.7
20260507103003 10 328 11.3 20.9 0.10 1.22 1.04 96 1007.7
20260507102003 10 345 11.3 29.0 0.15 1.22 1.04 96 1007.2
20260507101003 10 357 11.3 37.0 0.18 1.22 1.02 95 1007.5
20260507100003 10 353 19.3 37.0 0.20 1.17 0.99 93 1007.0
20260507095003 11 326 29.0 37.0 0.23 1.17 0.97 94 1007.3
20260507094004 11 352 14.5 30.6 0.25 1.14 0.94 95 1006.9
20260507093024 11 6 9.7 30.6 0.30 1.14 0.94 95 1007.0
20260507092003 11 346 12.9 24.1 0.38 1.07 0.89 95 1007.4
20260507091003 11 19 11.3 24.1 0.66 1.04 0.84 96 1007.1
20260507090003 12 317 14.5 19.3 0.74 0.99 0.79 96 1007.1
20260507085003 12 297 8.0 24.1 0.69 0.91 0.71 97 1006.8
20260507084003 12 286 8.0 24.1 0.66 0.89 0.71 98 1006.7
20260507083024 12 330 12.9 20.9 0.61 0.84 0.64 98 1006.6
20260507082003 12 263 9.7 19.3 0.46 0.69 0.48 97 1007.2
20260507081003 12 255 6.4 16.1 0.15 0.38 0.18 96 1006.5
20260507080004 12 268 3.2 4.8 0.00 0.23 0.05 95 1005.9
20260507075003 12 189 3.2 4.8 0.00 0.23 0.03 95 1006.0
20260507074003 12 194 3.2 4.8 0.00 0.23 0.03 95 1005.9
20260507073003 12 186 1.6 8.0 0.00 0.23 0.03 96 1006.0
20260507072003 12 151 1.6 9.7 0.00 0.23 0.03 96 1006.2
20260507071003 12 172 4.8 9.7 0.00 0.23 0.03 96 1006.1
20260507070004 12 173 6.4 8.0 0.00 0.23 0.03 96 1006.1
20260507065003 12 191 4.8 8.0 0.00 0.23 0.03 96 1006.3
20260507064024 12 206 3.2 8.0 0.00 0.23 0.03 96 1006.2
20260507063003 12 188 1.6 14.5 0.00 0.23 0.03 96 1006.3
20260507062003 12 138 3.2 14.5 0.00 0.23 0.03 96 1006.2
20260507061003 12 210 4.8 9.7 0.00 0.23 0.03 96 1006.7
20260507060003 12 191 3.2 9.7 0.03 0.23 0.03 96 1006.5
20260507055003 12 196 4.8 9.7 0.03 0.23 0.03 96 1006.8
20260507054003 12 206 4.8 11.3 0.03 0.23 0.03 96 1006.9
20260507053024 12 201 6.4 11.3 0.03 0.23 0.03 96 1007.0
20260507052003 12 194 6.4 11.3 0.03 0.23 0.03 96 1007.3
20260507051004 12 197 4.8 16.1 0.00 0.20 0.00 96 1007.3
20260507050003 12 214 8.0 16.1 0.00 0.20 0.00 96 1007.8
20260507045003 12 218 6.4 16.1 0.00 0.20 0.00 96 1007.4
20260507044003 12 224 8.0 14.5 0.00 0.20 0.00 96 1007.4
20260507043003 12 207 9.7 14.5 0.00 0.20 0.00 96 1007.3
20260507042003 12 205 6.4 20.9 0.00 0.20 0.00 96 1007.4
20260507041003 12 211 8.0 20.9 0.00 0.20 0.00 97 1007.4
20260507040004 12 219 11.3 20.9 0.00 0.20 0.00 97 1007.7
20260507035003 12 224 6.4 19.3 0.00 0.20 0.20 97 1007.9
20260507034004 12 222 9.7 22.5 0.00 0.20 0.20 97 1007.5
20260507033024 12 223 9.7 30.6 0.00 0.20 0.20 97 1007.9
20260507032003 12 240 14.5 30.6 0.00 0.20 0.20 97 1007.8
20260507031003 12 217 9.7 30.6 0.00 0.20 0.20 97 1007.5
20260507030003 12 213 14.5 30.6 0.00 0.20 0.20 97 1007.4
20260507025003 12 209 16.1 22.5 0.00 0.20 0.20 97 1007.5
20260507024003 12 218 12.9 27.4 0.00 0.20 0.20 97 1007.5
20260507023024 13 222 12.9 30.6 0.00 0.20 0.20 97 1007.7
20260507022003 13 213 16.1 30.6 0.00 0.20 0.20 97 1007.8
20260507021024 13 214 12.9 30.6 0.00 0.20 0.20 97 1007.9
20260507020003 13 219 16.1 30.6 0.00 0.20 0.20 97 1008.0
20260507015003 13 223 16.1 25.7 0.00 0.20 0.20 97 1008.3
20260507014003 13 221 12.9 30.6 0.00 0.20 0.20 97 1008.1
20260507013003 13 233 17.7 33.8 0.03 0.20 0.20 97 1008.5
20260507012003 13 231 17.7 33.8 0.03 0.20 0.20 97 1008.6
20260507011003 13 215 12.9 29.0 0.03 0.18 0.18 97 1008.5
20260507010004 13 226 16.1 37.0 0.03 0.18 0.18 97 1008.4
20260507005024 13 227 14.5 41.8 0.03 0.18 0.18 97 1008.4
20260507004003 13 231 17.7 41.8 0.05 0.18 0.18 97 1008.6
20260507003003 13 245 19.3 40.2 0.05 0.18 0.18 97 1008.4
20260507002003 13 231 14.5 30.6 0.05 0.18 0.18 97 1008.4
20260507001003 13 222 20.9 35.4 0.05 0.18 0.18 97 1008.5
20260507000003 13 231 22.5 40.2 0.08 0.18 0.18 97 1008.3
20260506235003 13 206 14.5 40.2 0.08 0.15 0.15 96 1008.4
20260506234003 13 207 19.3 33.8 0.10 0.15 0.15 96 1008.5
20260506233003 13 208 16.1 32.2 0.10 0.13 0.13 96 1008.3
20260506232003 13 218 17.7 41.8 0.10 0.13 0.13 96 1008.1
20260506231003 13 226 17.7 41.8 0.08 0.13 0.13 96 1008.1
20260506230003 13 198 20.9 43.5 0.08 0.10 0.10 95 1008.6
20260506225003 13 222 22.5 43.5 0.05 0.08 0.08 94 1008.6
20260506224003 13 224 17.7 38.6 0.05 0.05 0.05 93 1008.5
20260506223003 13 222 17.7 38.6 0.03 0.05 0.05 93 1008.6
20260506222003 13 227 19.3 40.2 0.03 0.05 0.05 91 1008.8
20260506221003 14 219 22.5 40.2 0.00 0.03 0.03 90 1008.9
20260506220003 15 226 17.7 33.8 0.00 0.03 0.03 88 1008.8
20260506215003 15 212 19.3 38.6 0.00 0.03 0.03 86 1008.9
20260506214024 15 219 19.3 38.6 0.03 0.03 0.03 85 1009.0
20260506213003 15 197 17.7 32.2 0.03 0.03 0.03 86 1009.1
20260506212003 15 215 16.1 32.2 0.03 0.03 0.03 85 1009.1
20260506211003 15 211 24.1 32.2 0.03 0.03 0.03 85 1009.2
20260506210003 15 201 22.5 33.8 0.00 0.00 0.00 83 1009.4
20260506205024 15 232 16.1 33.8 0.00 0.00 0.00 83 1009.3
20260506204003 16 243 17.7 41.8 0.00 0.00 0.00 82 1009.3
20260506203003 16 205 12.9 41.8 0.00 0.00 0.00 83 1009.5
20260506202003 16 226 19.3 33.8 0.00 0.00 0.00 81 1009.5
20260506201024 16 209 17.7 33.8 0.00 0.00 0.00 79 1009.4
20260506200003 16 215 14.5 32.2 0.00 0.00 0.00 80 1009.9
20260506195003 16 232 14.5 32.2 0.00 0.00 0.00 78 1009.9
20260506194003 16 235 16.1 32.2 0.00 0.00 0.00 77 1010.1
20260506193003 16 224 16.1 30.6 0.00 0.00 0.00 77 1010.2
20260506192003 16 205 14.5 30.6 0.00 0.00 0.00 78 1010.2
20260506191003 17 212 17.7 37.0 0.00 0.00 0.00 76 1010.2
20260506190024 17 228 14.5 45.1 0.00 0.00 0.00 76 1010.3
20260506185024 17 219 22.5 45.1 0.00 0.00 0.00 75 1010.2
20260506184003 17 219 17.7 43.5 0.00 0.00 0.00 75 1010.5
20260506183003 17 214 17.7 43.5 0.00 0.00 0.00 74 1010.6
20260506182003 17 222 12.9 43.5 0.00 0.00 0.00 75 1010.6
20260506181003 17 221 22.5 40.2 0.00 0.00 0.00 74 1011.0
20260506180004 18 225 22.5 54.7 0.00 0.00 0.00 73 1011.1
20260506175003 18 229 22.5 54.7 0.00 0.00 0.00 72 1011.3
20260506174003 19 233 22.5 43.5 0.00 0.00 0.00 71 1011.3
20260506173004 18 213 22.5 43.5 0.00 0.00 0.00 71 1011.5
20260506172003 19 219 20.9 30.6 0.00 0.00 0.00 72 1011.5
20260506171003 19 229 19.3 41.8 0.00 0.00 0.00 74 1011.5
20260506170003 18 235 16.1 45.1 0.00 0.00 0.00 74 1011.9
20260506165003 17 220 17.7 45.1 0.00 0.00 0.00 75 1012.0
20260506164003 18 217 20.9 41.8 0.00 0.00 0.00 74 1012.0
20260506163003 18 216 22.5 41.8 0.00 0.00 0.00 71 1012.1
20260506162003 19 233 20.9 40.2 0.00 0.00 0.00 71 1012.4
20260506161002 20 220 19.3 40.2 0.00 0.00 0.00 69 1012.4
20260506160003 19 214 19.3 48.3 0.00 0.00 0.00 70 1012.4
20260506155003 19 211 17.7 48.3 0.00 0.00 0.00 71 1012.6
20260506154002 18 230 17.7 45.1 0.00 0.00 0.00 71 1012.6
20260506153002 19 201 24.1 48.3 0.00 0.00 0.00 72 1012.8
20260506152003 19 214 25.7 49.9 0.00 0.00 0.00 71 1012.9